GW0092 Weather Reports


time (UTC)temp
C
wind
direction
speed
KPH
gust
KPH
rain 1hr
cm
rain 24hr
cm
rain mn
cm
humidity
%
barometer
mb
20260507170100 13 0 1.6 4.8 0.00 0.30 0.25 82 1011.1
20260507164638 13 0 0.0 1.6 0.00 0.30 0.25 81 1011.3
20260507163101 13 321 0.0 8.0 0.00 0.30 0.25 81 1011.7
20260507161600 13 271 1.6 6.4 0.00 0.30 0.25 79 1011.8
20260507160058 13 301 0.0 6.4 0.00 0.30 0.25 81 1011.5
20260507154601 13 331 1.6 8.0 0.00 0.30 0.25 81 1011.9
20260507153059 13 0 1.6 9.7 0.00 0.30 0.25 80 1012.2
20260507151551 13 294 0.0 11.3 0.00 0.30 0.25 81 1012.4
20260507150053 13 341 1.6 9.7 0.00 0.30 0.25 83 1012.2
20260507144551 12 309 4.8 12.9 0.00 0.30 0.25 83 1012.4
20260507143056 12 349 3.2 11.3 0.00 0.30 0.25 84 1012.0
20260507141549 12 302 3.2 8.0 0.00 0.30 0.25 87 1011.9
20260507140053 12 314 1.6 4.8 0.00 0.30 0.25 86 1012.0
20260507134553 11 29 1.6 6.4 0.03 0.30 0.25 86 1012.0
20260507133056 11 0 1.6 8.0 0.03 0.30 0.25 86 1012.2
20260507131557 11 333 3.2 11.3 0.03 0.30 0.25 86 1011.8
20260507130055 12 325 4.8 14.5 0.03 0.30 0.25 87 1011.7
20260507124601 12 344 4.8 9.7 0.00 0.28 0.23 89 1012.4
20260507123051 12 15 1.6 9.7 0.00 0.28 0.23 91 1012.2
20260507121553 12 319 3.2 11.3 0.00 0.28 0.23 92 1012.1
20260507120053 12 310 3.2 9.7 0.00 0.28 0.23 91 1012.0
20260507114608 12 329 6.4 12.9 0.00 0.28 0.23 93 1011.7
20260507113124 12 328 3.2 9.7 0.00 0.28 0.23 94 1011.4
20260507111558 12 27 4.8 14.5 0.00 0.28 0.23 95 1011.4
20260507104600 12 284 4.8 17.7 0.00 0.28 0.23 96 1011.5
20260507103106 12 310 4.8 14.5 0.00 0.28 0.23 97 1011.1
20260507101607 13 17 6.4 19.3 0.00 0.28 0.23 97 1010.8
20260507100115 13 302 6.4 12.9 0.00 0.28 0.23 97 1011.1
20260507094615 13 359 8.0 12.9 0.00 0.28 0.23 97 1010.7
20260507093057 13 352 4.8 14.5 0.05 0.28 0.23 97 1010.5
20260507091636 14 340 9.7 16.1 0.05 0.28 0.23 97 1010.1
20260507084603 15 293 11.3 25.7 0.08 0.28 0.23 96 1009.7
20260507083053 17 302 4.8 9.7 0.03 0.23 0.18 98 1009.2
20260507081559 17 320 1.6 4.8 0.03 0.23 0.18 98 1008.8
20260507080055 17 302 0.0 1.6 0.00 0.20 0.15 98 1008.6
20260507074614 17 268 0.0 0.0 0.00 0.20 0.15 98 1008.5
20260507073055 17 0 0.0 1.6 0.00 0.20 0.15 98 1008.3
20260507071553 17 136 0.0 1.6 0.00 0.20 0.15 97 1008.3
20260507070054 17 0 0.0 3.2 0.15 0.20 0.15 97 1008.6
20260507064557 17 0 0.0 3.2 0.15 0.20 0.15 97 1008.6
20260507063053 17 315 1.6 8.0 0.15 0.20 0.15 97 1008.8
20260507061554 18 323 3.2 17.7 0.15 0.20 0.15 96 1008.7
20260507060101 17 13 3.2 9.7 0.00 0.05 0.00 95 1009.1
20260507054557 17 358 1.6 9.7 0.00 0.05 0.00 96 1009.0
20260507053052 16 0 0.0 0.0 0.00 0.05 0.00 98 1009.0
20260507051553 16 0 0.0 0.0 0.00 0.05 0.00 97 1009.5
20260507050050 16 0 0.0 0.0 0.00 0.05 0.00 98 1009.6
20260507044605 16 0 0.0 0.0 0.00 0.05 0.00 97 1009.9
20260507043104 15 0 0.0 0.0 0.00 0.05 0.00 97 1009.9
20260507041559 16 0 0.0 0.0 0.00 0.05 0.00 97 1009.7
20260507040057 16 0 0.0 0.0 0.00 0.05 0.00 97 1009.4
20260507034555 16 0 0.0 0.0 0.00 0.05 0.05 97 1009.3
20260507033055 16 0 0.0 0.0 0.00 0.05 0.05 97 1009.4
20260507031555 16 0 0.0 0.0 0.00 0.05 0.05 97 1009.4
20260507030055 16 0 0.0 0.0 0.00 0.05 0.05 97 1009.5
20260507024555 16 0 0.0 0.0 0.00 0.05 0.05 97 1009.8
20260507023108 16 0 0.0 0.0 0.00 0.05 0.05 96 1009.7
20260507021554 16 0 0.0 0.0 0.00 0.05 0.05 96 1010.0
20260507020100 16 0 0.0 0.0 0.00 0.05 0.05 96 1010.0
20260507014557 16 0 0.0 0.0 0.00 0.05 0.05 96 1010.2
20260507013052 16 0 0.0 0.0 0.00 0.05 0.05 96 1010.1
20260507011601 17 0 0.0 0.0 0.00 0.05 0.05 95 1010.0
20260507010058 17 0 0.0 0.0 0.00 0.05 0.05 95 1010.1
20260507004550 17 0 0.0 0.0 0.00 0.05 0.05 94 1010.0
20260507003111 17 0 0.0 0.0 0.00 0.05 0.05 94 1009.8
20260507001612 17 0 0.0 0.0 0.00 0.05 0.05 93 1009.7
20260507000058 18 131 1.6 3.2 0.00 0.05 0.05 93 1009.4
20260506234555 18 145 0.0 1.6 0.00 0.05 0.05 92 1009.6
20260506233055 18 120 1.6 1.6 0.00 0.05 0.05 91 1009.4
20260506231604 18 0 0.0 3.2 0.00 0.05 0.05 90 1009.4
20260506230113 19 123 1.6 4.8 0.00 0.05 0.05 90 1009.5
20260506224553 19 114 1.6 3.2 0.00 0.05 0.05 89 1009.5
20260506223054 20 141 1.6 4.8 0.00 0.05 0.05 88 1009.6
20260506221606 20 131 1.6 3.2 0.00 0.05 0.05 89 1009.6
20260506220056 19 120 0.0 3.2 0.00 0.05 0.05 89 1009.5
20260506214554 19 0 1.6 4.8 0.00 0.05 0.05 89 1009.9
20260506213106 19 150 1.6 3.2 0.00 0.05 0.05 89 1009.5
20260506211555 19 112 1.6 6.4 0.00 0.05 0.05 88 1009.6
20260506210104 19 112 1.6 3.2 0.00 0.05 0.05 89 1009.3
20260506204602 19 112 1.6 8.0 0.00 0.05 0.05 89 1009.6
20260506203121 19 131 0.0 6.4 0.00 0.05 0.05 89 1009.6
20260506201556 19 115 1.6 8.0 0.00 0.05 0.05 89 1009.8
20260506200057 19 117 1.6 6.4 0.00 0.05 0.05 89 1009.7
20260506194600 19 136 3.2 9.7 0.00 0.05 0.05 89 1010.0
20260506193104 19 65 3.2 8.0 0.00 0.05 0.05 90 1010.2
20260506191553 19 89 3.2 6.4 0.00 0.05 0.05 91 1010.9
20260506190056 18 106 3.2 8.0 0.00 0.05 0.05 92 1010.8
20260506184554 18 134 3.2 12.9 0.00 0.05 0.05 91 1010.9
20260506183105 18 141 1.6 9.7 0.03 0.05 0.05 92 1011.1
20260506181556 19 138 1.6 11.3 0.05 0.05 0.05 93 1011.0
20260506180058 18 82 3.2 11.3 0.05 0.05 0.05 95 1011.3
20260506174556 18 138 1.6 9.7 0.05 0.05 0.05 95 1011.3
20260506173059 18 147 1.6 8.0 0.03 0.03 0.03 92 1011.6
20260506171550 18 139 3.2 16.1 0.00 0.00 0.00 91 1011.9